Regional Weather Roundup
Issued by NWS

Home | Current Version | Previous Version | Graphics & Text | Print | Product List | Glossary On
Versions: 1 2 3 4 5 6 7 8 9 10 11 12 13 14 15 16 17 18 19 20 21 22 23 24 25 26 27 28 29 30 31 32 33 34 35 36 37 38 39 40 41 42 43 44 45 46 47 48 49 50
000
ASUS43 KTOP 300108
RWRKS

WEATHER ROUNDUP FOR KANSAS
NATIONAL WEATHER SERVICE GOODLAND KS
800 PM CDT MON JUN 29 2015

NOTE:  "FAIR" INDICATES FEW OR NO CLOUDS BELOW 12,000 FEET WITH NO
SIGNIFICANT WEATHER AND/OR OBSTRUCTIONS TO VISIBILITY.

KSZ001>006-013>018-027>032-041>047-300200-
NORTHWEST KANSAS

CITY           SKY/WX    TMP DP  RH WIND       PRES   REMARKS
GOODLAND       SUNNY     84  53  34 S13       30.08F
HAYS           SUNNY     91  48  22 N7        29.96S
HILL CITY      SUNNY     93  52  24 NE8       29.98R
RUSSELL        SUNNY     90  53  28 NE6       29.94S
$$

KSZ061>065-074>080-084>089-300200-
SOUTHWEST KANSAS

CITY           SKY/WX    TMP DP  RH WIND       PRES   REMARKS
DODGE CITY     MOSUNNY   82  53  36 NW8       30.02S
ELKHART          N/A     83  56  39 SE7         N/A
GARDEN CITY    CLOUDY    86  56  35 NW6       30.03F
GREAT BEND     SUNNY     91  54  27 E5        29.95S
LIBERAL        CLOUDY    86  59  39 NW5       30.06S
PRATT          CLEAR    N/A N/A N/A NE5       29.98S
$$

KSZ066>073-081>083-090>101-300200-
SOUTHEAST KANSAS

CITY           SKY/WX    TMP DP  RH WIND       PRES   REMARKS
CHANUTE        CLEAR     83  63  50 N3        29.92S
COFFEYVILLE    CLEAR     85  64  49 CALM      29.91S
HUTCHINSON     CLEAR     88  65  46 CALM      29.94S
MEDICINE LODGE   N/A     89  59  36 NE6       29.94R
NEWTON         CLEAR     82  55  39 CALM      29.97S
PARSONS        CLEAR     80  69  69 CALM      29.93S
WICHITA INTL   MOCLDY    86  57  37 E7        29.93S
WICHITA JABRA  CLEAR     82  61  48 E3        29.94S
WICHITA MCCONL CLEAR     85  59  41 E6        29.94S
WINFIELD       CLEAR     85  58  39 E7        29.94S
$$

KSZ007>012-019>026-033>040-048>060-102>105-300200-
NORTHEAST KANSAS

CITY           SKY/WX    TMP DP  RH WIND       PRES   REMARKS
CONCORDIA      CLEAR     83  62  49 NE5       29.94S
EMPORIA        CLEAR     82  65  56 S3        29.93S
LAWRENCE       CLEAR     80  66  62 NW5       29.90S
MANHATTAN      CLEAR     84  63  49 N3        29.91S
MARYSVILLE     CLEAR     81  63  54 CALM      29.93R
OLATHE IND     CLEAR     81  64  56 NW5       29.92S
OLATHE EXE     CLEAR     81  62  52 NW6       29.90S
SALINA         CLEAR     88  56  33 NE9       29.93S
TOPEKA BILLARD CLEAR     84  65  52 CALM      29.90F
TOPEKA FORBES  CLEAR     82  63  52 W6        29.91F
$$


USA.gov is the U.S. government's official web portal to all federal, state and local government web resources and services.